IBE1037 LEMD-LEAM

Flight info

Callsign IBE1037
Flight time 0h 40m
Altitude 31000
Route VTB DCT IDEVU DCT ANZAN L27 BLN DCT BAZAS DCT ARPEX M192 AGIDO
Aircraft A320/M-SDE3FGHIRWY/LB1

Departure

Time 2026-05-07 17:37
Airport Adolfo Suárez Madrid–Barajas Airport (LEMD)

Arrival

Time 2026-05-07 18:17
Airport Almería Airport (LEAM)
Time Latitude Longitude Altitude Speed Heading
2026-05-07 17:12 40.49079 -3.58964 2030 ft 0 kts 271°
2026-05-07 17:28 40.49080 -3.58934 2026 ft 4 kts 262°
2026-05-07 17:28 40.49087 -3.58900 2032 ft 4 kts 238°
2026-05-07 17:28 40.49103 -3.58880 2031 ft 3 kts 182°
2026-05-07 17:29 40.49106 -3.58880 2030 ft 0 kts 179°
2026-05-07 17:31 40.49099 -3.58880 2032 ft 4 kts 179°
2026-05-07 17:32 40.49031 -3.58880 2026 ft 12 kts 180°
2026-05-07 17:32 40.48937 -3.58879 2022 ft 15 kts 180°
2026-05-07 17:32 40.48821 -3.58878 2022 ft 17 kts 179°
2026-05-07 17:32 40.48758 -3.58786 2022 ft 17 kts 89°
2026-05-07 17:33 40.48759 -3.58625 2022 ft 18 kts 90°
2026-05-07 17:33 40.48760 -3.58445 2017 ft 22 kts 90°
2026-05-07 17:33 40.48761 -3.58218 2009 ft 27 kts 90°
2026-05-07 17:33 40.48762 -3.57961 2000 ft 28 kts 89°
2026-05-07 17:34 40.48762 -3.57702 1992 ft 25 kts 89°
2026-05-07 17:34 40.48717 -3.57577 1991 ft 15 kts 169°
2026-05-07 17:34 40.48682 -3.57571 1992 ft 0 kts 173°
2026-05-07 17:35 40.48681 -3.57570 1992 ft 1 kts 173°
2026-05-07 17:35 40.48624 -3.57561 1993 ft 13 kts 173°
2026-05-07 17:35 40.48532 -3.57546 1994 ft 14 kts 174°
2026-05-07 17:35 40.48436 -3.57544 1996 ft 15 kts 148°
2026-05-07 17:36 40.48254 -3.57360 2003 ft 65 kts 142°
2026-05-07 17:36 40.47718 -3.56816 1995 ft 128 kts 142°
2026-05-07 17:36 40.46877 -3.55960 1991 ft 175 kts 142°
2026-05-07 17:36 40.45878 -3.54961 2521 ft 182 kts 142°
2026-05-07 17:37 40.44868 -3.53967 3256 ft 183 kts 141°
2026-05-07 17:37 40.43796 -3.52897 3574 ft 205 kts 141°
2026-05-07 17:37 40.42600 -3.51694 3948 ft 226 kts 142°
2026-05-07 17:37 40.41342 -3.50431 4870 ft 228 kts 142°
2026-05-07 17:38 40.40079 -3.49163 5769 ft 230 kts 143°
2026-05-07 17:38 40.38712 -3.48022 6432 ft 243 kts 161°
2026-05-07 17:38 40.36980 -3.47695 6901 ft 262 kts 178°
2026-05-07 17:38 40.35136 -3.47554 7657 ft 268 kts 177°
2026-05-07 17:39 40.33254 -3.47380 8477 ft 275 kts 177°
2026-05-07 17:39 40.31329 -3.47187 9304 ft 280 kts 177°
2026-05-07 17:39 40.29377 -3.46990 10162 ft 284 kts 177°
2026-05-07 17:39 40.27335 -3.46787 10513 ft 306 kts 177°
2026-05-07 17:40 40.25138 -3.46569 10836 ft 326 kts 177°
2026-05-07 17:40 40.22850 -3.46340 11494 ft 333 kts 177°
2026-05-07 17:40 40.20524 -3.46108 12245 ft 338 kts 177°
2026-05-07 17:40 40.18164 -3.45878 13015 ft 341 kts 177°
2026-05-07 17:41 40.15784 -3.45645 13764 ft 345 kts 177°
2026-05-07 17:41 40.13378 -3.45411 14402 ft 349 kts 177°
2026-05-07 17:41 40.10941 -3.45176 15054 ft 353 kts 177°
2026-05-07 17:41 40.08515 -3.44941 15695 ft 356 kts 177°
2026-05-07 17:42 40.05983 -3.44693 16121 ft 368 kts 177°
2026-05-07 17:42 40.03376 -3.44437 16320 ft 383 kts 177°
2026-05-07 17:42 40.00725 -3.44178 16796 ft 389 kts 177°
2026-05-07 17:42 39.98010 -3.43912 17342 ft 393 kts 177°
2026-05-07 17:43 39.95267 -3.43649 17880 ft 398 kts 177°
2026-05-07 17:43 39.92494 -3.43383 18395 ft 401 kts 178°
2026-05-07 17:43 39.89700 -3.43112 18903 ft 404 kts 178°
2026-05-07 17:43 39.86883 -3.42840 19394 ft 407 kts 178°
2026-05-07 17:44 39.84046 -3.42566 19849 ft 411 kts 178°
2026-05-07 17:44 39.81183 -3.42288 20299 ft 414 kts 178°
2026-05-07 17:44 39.78291 -3.42006 20740 ft 418 kts 178°
2026-05-07 17:44 39.75375 -3.41723 21160 ft 422 kts 178°
2026-05-07 17:45 39.72430 -3.41440 21533 ft 428 kts 179°
2026-05-07 17:45 39.69444 -3.41155 21919 ft 432 kts 179°
2026-05-07 17:45 39.66433 -3.40866 22326 ft 436 kts 179°
2026-05-07 17:45 39.63387 -3.40576 22730 ft 440 kts 179°
2026-05-07 17:46 39.60320 -3.40285 23126 ft 444 kts 178°
2026-05-07 17:46 39.57242 -3.39671 23487 ft 451 kts 172°
2026-05-07 17:46 39.54152 -3.38895 23808 ft 454 kts 172°
2026-05-07 17:46 39.51036 -3.38089 24097 ft 458 kts 172°
2026-05-07 17:47 39.47894 -3.37267 24379 ft 463 kts 173°
2026-05-07 17:47 39.44730 -3.36437 24688 ft 466 kts 173°
2026-05-07 17:47 39.41537 -3.35601 25015 ft 469 kts 173°
2026-05-07 17:47 39.38331 -3.34764 25333 ft 472 kts 173°
2026-05-07 17:48 39.35106 -3.33924 25655 ft 474 kts 173°
2026-05-07 17:48 39.31903 -3.33095 25956 ft 477 kts 174°
2026-05-07 17:48 39.28641 -3.32260 26197 ft 480 kts 175°
2026-05-07 17:48 39.25349 -3.31423 26441 ft 484 kts 175°
2026-05-07 17:49 39.22036 -3.30580 26727 ft 486 kts 175°
2026-05-07 17:49 39.18708 -3.29730 27017 ft 489 kts 175°
2026-05-07 17:49 39.15370 -3.28876 27320 ft 491 kts 175°
2026-05-07 17:49 39.12012 -3.28012 27606 ft 493 kts 175°
2026-05-07 17:50 39.08641 -3.27147 27898 ft 495 kts 175°
2026-05-07 17:50 39.05262 -3.26280 28246 ft 494 kts 175°
2026-05-07 17:50 39.01894 -3.25413 28704 ft 493 kts 175°
2026-05-07 17:50 38.98537 -3.24552 29150 ft 491 kts 176°
2026-05-07 17:51 38.95187 -3.23703 29576 ft 490 kts 176°
2026-05-07 17:51 38.91844 -3.22860 30012 ft 489 kts 176°
2026-05-07 17:51 38.88510 -3.22017 30374 ft 488 kts 176°
2026-05-07 17:51 38.85180 -3.21171 30728 ft 487 kts 176°
2026-05-07 17:52 38.81859 -3.20327 30886 ft 486 kts 176°
2026-05-07 17:52 38.78535 -3.19479 30932 ft 486 kts 176°
2026-05-07 17:52 38.71900 -3.17792 30928 ft 486 kts 176°
2026-05-07 17:53 38.65311 -3.16129 30934 ft 486 kts 176°
2026-05-07 17:53 38.58634 -3.14453 30924 ft 485 kts 176°
2026-05-07 17:54 38.52071 -3.12801 30932 ft 484 kts 176°
2026-05-07 17:54 38.45455 -3.11141 30930 ft 484 kts 176°
2026-05-07 17:55 38.38843 -3.09485 30928 ft 484 kts 176°
2026-05-07 17:55 38.32238 -3.07836 30931 ft 484 kts 176°
2026-05-07 17:56 38.25632 -3.06180 30933 ft 484 kts 176°
2026-05-07 17:56 38.19017 -3.04530 30948 ft 484 kts 176°
2026-05-07 17:57 38.13519 -3.03161 30915 ft 484 kts 176°
2026-05-07 17:57 38.05793 -3.01246 30932 ft 484 kts 176°
2026-05-07 17:58 37.99227 -2.99618 30934 ft 484 kts 176°
2026-05-07 17:58 37.92639 -2.97985 30357 ft 481 kts 176°
2026-05-07 17:59 37.89346 -2.97172 29340 ft 483 kts 176°
2026-05-07 17:59 37.86044 -2.96358 28216 ft 484 kts 176°
2026-05-07 17:59 37.82727 -2.95542 27128 ft 487 kts 175°
2026-05-07 17:59 37.79399 -2.94725 26045 ft 488 kts 175°
2026-05-07 18:00 37.76060 -2.93907 25193 ft 489 kts 175°
2026-05-07 18:00 37.72700 -2.93085 24957 ft 493 kts 175°
2026-05-07 18:00 37.69325 -2.92255 24941 ft 495 kts 175°
2026-05-07 18:00 37.65947 -2.91421 24940 ft 495 kts 175°
2026-05-07 18:01 37.62572 -2.90586 24926 ft 494 kts 175°
2026-05-07 18:01 37.59212 -2.89755 24214 ft 490 kts 175°
2026-05-07 18:01 37.55887 -2.88937 23361 ft 485 kts 175°
2026-05-07 18:01 37.52589 -2.88131 22485 ft 480 kts 174°
2026-05-07 18:02 37.46103 -2.86513 20899 ft 472 kts 171°
2026-05-07 18:02 37.42981 -2.85251 20159 ft 473 kts 162°
2026-05-07 18:02 37.40031 -2.83419 19442 ft 474 kts 153°
2026-05-07 18:03 37.37319 -2.81049 18761 ft 474 kts 143°
2026-05-07 18:03 37.34790 -2.78419 18050 ft 471 kts 143°
2026-05-07 18:03 37.32275 -2.75812 17340 ft 465 kts 143°
2026-05-07 18:03 37.29826 -2.73277 16722 ft 458 kts 142°
2026-05-07 18:04 37.27359 -2.70728 16162 ft 450 kts 142°
2026-05-07 18:04 37.24996 -2.68287 15616 ft 442 kts 142°
2026-05-07 18:04 37.22700 -2.65771 15064 ft 435 kts 136°
2026-05-07 18:04 37.20768 -2.62892 14511 ft 429 kts 126°
2026-05-07 18:05 37.19253 -2.59646 13928 ft 424 kts 115°
2026-05-07 18:05 37.18234 -2.56210 13320 ft 417 kts 105°
2026-05-07 18:05 37.17523 -2.52759 12649 ft 412 kts 104°
2026-05-07 18:05 37.16802 -2.49305 11966 ft 408 kts 105°
2026-05-07 18:06 37.16079 -2.45889 11290 ft 404 kts 105°
2026-05-07 18:06 37.15371 -2.42552 11102 ft 386 kts 105°
2026-05-07 18:06 37.14697 -2.39371 10974 ft 369 kts 105°
2026-05-07 18:06 37.14058 -2.36343 10849 ft 347 kts 105°
2026-05-07 18:07 37.13466 -2.33529 10727 ft 321 kts 105°
2026-05-07 18:07 37.12912 -2.30901 10456 ft 306 kts 105°
2026-05-07 18:07 37.12373 -2.28336 10170 ft 302 kts 105°
2026-05-07 18:07 37.11838 -2.25803 9846 ft 300 kts 105°
2026-05-07 18:08 37.11309 -2.23287 9485 ft 298 kts 105°
2026-05-07 18:08 37.10781 -2.20785 9175 ft 296 kts 105°
2026-05-07 18:08 37.10223 -2.18304 8908 ft 293 kts 112°
2026-05-07 18:08 37.09258 -2.16107 8661 ft 286 kts 130°
2026-05-07 18:09 37.07821 -2.14420 8406 ft 280 kts 148°
2026-05-07 18:09 37.06094 -2.13388 8095 ft 273 kts 166°
2026-05-07 18:09 37.04233 -2.13055 7746 ft 268 kts 183°
2026-05-07 18:09 37.02375 -2.13116 7421 ft 265 kts 174°
2026-05-07 18:10 37.00690 -2.12440 7295 ft 247 kts 151°
2026-05-07 18:10 36.99418 -2.11077 6960 ft 239 kts 129°
2026-05-07 18:10 36.98361 -2.09486 6490 ft 237 kts 133°
2026-05-07 18:10 36.97222 -2.08000 6007 ft 236 kts 137°
2026-05-07 18:11 36.96002 -2.06641 5525 ft 234 kts 142°
2026-05-07 18:11 36.95153 -2.05822 5295 ft 233 kts 147°
2026-05-07 18:11 36.93131 -2.05282 4895 ft 225 kts 199°
2026-05-07 18:11 36.91943 -2.06401 4731 ft 214 kts 242°
2026-05-07 18:12 36.91414 -2.08118 4492 ft 212 kts 253°
2026-05-07 18:12 36.90996 -2.09891 4216 ft 213 kts 254°
2026-05-07 18:12 36.90572 -2.11665 3933 ft 214 kts 253°
2026-05-07 18:12 36.90142 -2.13445 3647 ft 214 kts 253°
2026-05-07 18:13 36.89717 -2.15194 3371 ft 210 kts 253°
2026-05-07 18:13 36.89295 -2.16932 3087 ft 203 kts 253°
2026-05-07 18:13 36.88891 -2.18592 2847 ft 198 kts 253°
2026-05-07 18:13 36.88499 -2.20200 2594 ft 193 kts 253°
2026-05-07 18:14 36.88114 -2.21784 2308 ft 186 kts 253°
2026-05-07 18:14 36.87751 -2.23287 2050 ft 175 kts 252°
2026-05-07 18:14 36.87407 -2.24701 1813 ft 165 kts 252°
2026-05-07 18:14 36.87087 -2.26017 1643 ft 151 kts 251°
2026-05-07 18:15 36.86793 -2.27215 1438 ft 140 kts 251°
2026-05-07 18:15 36.86515 -2.28354 1255 ft 135 kts 251°
2026-05-07 18:15 36.86237 -2.29486 1076 ft 137 kts 251°
2026-05-07 18:15 36.85955 -2.30638 902 ft 139 kts 252°
2026-05-07 18:16 36.85676 -2.31784 694 ft 136 kts 252°
2026-05-07 18:16 36.85402 -2.32904 506 ft 134 kts 251°
2026-05-07 18:16 36.85132 -2.34003 335 ft 132 kts 251°
2026-05-07 18:16 36.84863 -2.35109 165 ft 133 kts 252°
2026-05-07 18:17 36.84596 -2.36191 63 ft 119 kts 252°
2026-05-07 18:17 36.84400 -2.36990 59 ft 72 kts 253°
2026-05-07 18:17 36.84274 -2.37505 59 ft 51 kts 253°
2026-05-07 18:17 36.84202 -2.37819 61 ft 30 kts 260°
2026-05-07 18:18 36.84209 -2.38067 57 ft 27 kts 281°
2026-05-07 18:18 36.84231 -2.38182 59 ft 16 kts 303°
2026-05-07 18:18 36.84283 -2.38174 63 ft 7 kts 64°
2026-05-07 18:18 36.84301 -2.38100 63 ft 13 kts 73°
2026-05-07 18:19 36.84328 -2.37992 60 ft 12 kts 73°
2026-05-07 18:19 36.84358 -2.37872 62 ft 19 kts 73°
2026-05-07 18:19 36.84398 -2.37705 61 ft 20 kts 73°
2026-05-07 18:19 36.84438 -2.37541 58 ft 17 kts 71°
2026-05-07 18:20 36.84472 -2.37410 63 ft 15 kts 69°
2026-05-07 18:20 36.84550 -2.37365 64 ft 11 kts 42°
2026-05-07 18:20 36.84577 -2.37284 65 ft 10 kts 72°
2026-05-07 18:20 36.84620 -2.37269 62 ft 6 kts 342°
2026-05-07 18:21 36.84647 -2.37280 65 ft 4 kts 342°
2026-05-07 18:21 36.84667 -2.37273 68 ft 2 kts 57°
2026-05-07 18:21 36.84659 -2.37250 66 ft 3 kts 131°
2026-05-07 18:21 36.84656 -2.37247 66 ft 0 kts 131°